GAOFEN-12 03

Last updated on Sun Sep 20 2026 00:02:45 GMT+0000 (Coordinated Universal Time)

1 52912U 22069A 26262.49625478 .00000074 00000+0 16408-4 0 9994 2 52912 97.8118 147.9225 0001266 112.2576 247.8770 14.80154892228564
UTC large
Height (km)
Speed (km/s)
/
Latitude / Longitude
Inclination (degrees)
Orbital Period (minutes)
Azimuth
Elevation
Range (km)
Doppler Factor

Next 0 passes for location: London (51.5072 / 0.1276)

No passes found over London.
GAOFEN-12 03